Content
SEND FEEDBACK

Daily
Averages
Monthly
Summary
Mauritius

FORBACH, MAURITIUS


Home > Indian Ocean > Mauritius
Elevation: 181 feet     Latitude: 20 06S     Longitude: 057 32E

WEATHER
 
SELECT A DAY
Number of Records: 208,825;   Date Range: 7/1/96 - 8/20/14
 
SHARE

PRINT THIS DATA

[ ← Previous Day ]
WEATHER ALMANAC - FEBRUARY 13, 2013
[ Next Day → ]
[ °C ]   °F
Weather ElementAverageHighLow
Temperature71.4 °F80.6 °F (8:00 pm) (4:00 pm)
Dewpoint58 °F75.2 °F (2:00 am) (7:00 pm)
Humidity81.4 %100 % (2:00 am)22 % (1:00 pm)
Barometer29.11 in29.89 in (11:00 pm) (7:00 pm)
Wind Speed7.6 mph17.3 mph (8:00 am)
Wind Gust20.7 mph (4:00 am)
Weather ElementAverage
Visibility4.5 mi
Wind DirectionESE (111.7 °)

Weather ElementTotal
Precipitation---
Heating Degree Days24.7 (Base 65)
Averaged from 37 records on February 13, 2013
WEATHER CONDITIONS BREAKOUT
WIND DIRECTION BREAKOUT
WEATHER BY HOUR - FEBRUARY 13, 2013
[ °C ]   °F
Local TimeTemperatureDewpointHumidityBarometerVisibilityWind DirectionWind SpeedGust SpeedPrecipitationEventsConditions
1:00 AM75.2 °F73.4 °F94 %29.83 in0.6 miSW (220°)3.5 mphRainRain Showers
2:00 AM75.2 °F75.2 °F100 %29.80 in0.6 miNE (40°)10.4 mphRain-ThunderstormHeavy Thunderstorms and Rain
3:00 AM78.8 °F0.0 °F29.77 in3.7 miEast (90°)10.4 mphRainLight Rain
4:00 AM77.0 °F74.0 °F90 %29.79 in4.0 miENE (70°)15.0 mphRainLight Rain
4:00 AM77.0 °F75.2 °F94 %29.80 in3.7 miEast (80°)9.2 mph20.7 mphRainLight Rain
5:00 AM77.0 °F0.0 °F29.80 in3.7 miEast (80°)10.4 mphRainLight Rain
6:00 AM77.0 °F0.0 °F29.80 in3.7 miENE (70°)6.9 mphRainLight Rain
7:00 AM75.0 °F73.0 °F91 %29.82 in2.0 miESE (110°)12.7 mphRainHeavy Rain Showers
7:00 AM75.2 °F73.4 °F94 %29.83 in1.9 miESE (110°)11.5 mphRainRain Showers
8:00 AM77.0 °F75.2 °F94 %29.86 in1.9 miSE (130°)17.3 mphRainRain Showers
9:00 AM75.2 °F0.0 °F29.86 in3.7 miESE (110°)8.1 mphRainLight Rain
10:00 AM77.0 °F74.0 °F90 %29.87 in4.0 miEast (90°)5.8 mphRainLight Rain
10:00 AM77.0 °F0.0 °F29.86 in3.7 miENE (70°)4.6 mphRainLight Rain
11:00 AM77.0 °F0.0 °F29.86 in3.7 miCalmRainLight Rain
12:00 PM75.0 °F73.0 °F91 %29.87 in5.0 miNNE (20°)1.2 mphRainLight Rain
12:00 PM75.2 °F0.0 °F29.86 in5.0 miNNE (20°)3.5 mphRainLight Rain
1:00 PM77.0 °F35.6 °F22 %29.83 in6.2 miNNW (340°)3.5 mphThunderstormThunderstorm
2:00 PM78.8 °F73.4 °F83 %29.83 in6.2 miESE (110°)3.5 mphThunderstormThunderstorm
2:00 PM78.0 °F74.0 °F84 %29.84 in7.0 miCalmThunderstormThunderstorm
3:00 PM77.0 °F75.0 °F91 %29.83 in5.0 miEast (80°)10.4 mphThunderstormThunderstorm
3:00 PM77.0 °F35.6 °F22 %29.83 in5.0 miEast (90°)5.8 mphThunderstormThunderstorm
4:00 PM77.0 °F73.0 °F85 %29.83 in5.0 miCalmThunderstormLight Thunderstorm
4:00 PM0.0 °F73.4 °F29.83 in5.0 miESE (110°)1.2 mphMostly Cloudy
5:00 PM0.0 °F73.4 °F29.83 in5.0 miSE (140°)5.8 mphMostly Cloudy
5:00 PM79.0 °F74.0 °F79 %29.83 in5.0 miSouth (170°)2.3 mphThunderstormLight Thunderstorm
6:00 PM80.0 °F75.0 °F80 %29.83 in5.0 miSE (130°)4.6 mphMostly Cloudy
6:00 PM0.0 °F75.2 °F29.83 in5.0 miESE (120°)5.8 mphMostly Cloudy
7:00 PM77.0 °F75.2 °F94 %1.9 miSE (140°)9.2 mphMostly Cloudy
7:00 PM78.0 °F75.0 °F89 %29.83 in2.0 miSE (130°)6.9 mphRainLight Rain Showers
8:00 PM80.0 °F74.0 °F78 %29.85 in6.0 miSE (130°)15.0 mphMostly Cloudy
8:00 PM80.6 °F75.2 °F84 %29.86 in6.2 miSE (130°)11.5 mphMostly Cloudy
9:00 PM80.0 °F73.0 °F74 %29.86 in7.0 miESE (120°)11.5 mphOvercast
9:00 PM80.6 °F73.4 °F79 %29.86 in6.2 miSE (130°)11.5 mphMostly Cloudy
10:00 PM80.0 °F73.0 °F74 %29.87 in7.0 miSE (130°)10.4 mphMostly Cloudy
10:00 PM80.6 °F73.4 °F79 %29.86 in6.2 miSE (130°)11.5 mphMostly Cloudy
11:00 PM80.0 °F74.0 °F78 %29.88 in7.0 miSE (140°)6.9 mphMostly Cloudy
11:00 PM80.6 °F75.2 °F84 %29.89 in6.2 miSE (130°)12.7 mphMostly Cloudy
Hourly data recorded from FIMP, located miles away from Forbach, Mauritius







STORIES FROM OUR PARTNERS